{"data":{"norad_id":68723,"intl_designator":"2026-081AA","name":"STARLINK-37273","alt_names":[],"object_type":"PAYLOAD","status":"ACTIVE","operator":null,"country":"US","launch_date":"2026-04-14","launch_site_code":"AFETR","launch_vehicle":null,"mission":null,"orbit_class":"UNKNOWN","rcs_meters":null,"size_class":null,"mass_kg":null,"dimensions":null,"purposes":["comms"],"wikipedia_slug":null,"has_3d_model":false,"image_url":null,"decayed_at":null,"tle_current":{"epoch":"2026-09-19T11:32:13.089984Z","epoch_age_seconds":129473,"freshness":"FRESH","line1":"1 68723U 26081AA  26262.48070706  .00022816  00000+0  68414-3 0  9997","line2":"2 68723  53.1581 210.3706 0000569  83.7861 276.3206 15.34409901 24461","mean_motion":15.34409901,"eccentricity":5.69e-5,"inclination_deg":53.1581,"raan_deg":210.3706,"arg_perigee_deg":83.7861,"mean_anomaly_deg":276.3206,"bstar":0.00068414,"rev_number":2446,"period_min":93.847152515213,"perigee_km":462.28457037157,"apogee_km":463.06305464203,"semimajor_km":6840.8108125068,"source":"CELESTRAK","updated_at":"2026-09-20T09:00:43.987323Z"}}}